Wind_Speed
2 2 3 3 4 4 5 6 6 7 6 6 6 5 4 4 6 15 18 16 9 2 4 10 14 14 14 12 7 9 5 11 10 7 7 4 5 6 5 5 5 5 11 11 15
3 3 3 3 3 3 3 4 6 7 7 7 6 6 6 4 5 13 18 20 12 5 2 8 12 13 10 13 8 6 7 4 5 4 3 4 4 4 6 7 6 6 12 15 15
4 4 4 4 4 3 3 2 4 6 6 7 6 7 6 4 4 14 21 22 15 7 0 7 8 11 7 9 5 4 3 1 2 1 5 4 4 4 5 4 3 3 13 18 18
4 5 5 5 5 4 3 2 3 3 3 5 6 7 6 4 2 14 21 22 16 8 2 4 7 6 7 7 9 6 4 3 0 2 1 3 4 5 5 3 2 4 13 16 16
7 6 6 6 7 5 4 3 3 3 3 3 4 7 7 6 6 15 19 21 17 10 4 1 4 3 5 7 6 8 4 2 2 0 2 2 3 3 6 1 2 5 14 12 17
9 9 8 8 8 7 5 4 3 4 4 4 4 6 8 8 11 18 20 20 17 12 8 5 2 1 4 6 7 7 6 2 4 2 2 3 3 3 3 3 4 8 16 14 18
10 11 11 11 10 8 7 6 5 4 4 5 5 6 9 12 15 20 21 21 19 15 12 9 5 2 3 5 8 4 2 6 5 3 2 3 3 3 3 4 4 12 19 19 18
11 12 12 12 11 10 8 7 6 6 5 6 7 7 10 13 16 20 22 21 19 17 15 11 9 6 3 5 6 4 2 8 6 2 6 2 2 5 5 4 6 14 20 22 20
12 13 13 13 12 11 9 8 7 7 6 6 8 9 11 13 18 22 22 24 22 20 18 15 12 10 7 5 2 3 9 10 9 11 4 3 4 4 7 10 11 13 18 22 20
13 13 14 13 12 10 9 9 8 8 8 7 8 8 11 16 19 23 22 24 23 21 19 17 14 9 8 5 8 9 12 12 12 10 4 7 6 6 6 10 14 13 15 19 22
12 13 14 13 12 10 8 8 8 9 11 11 9 17 9 15 20 22 21 23 24 22 16 18 15 14 10 8 9 11 12 13 14 8 5 6 9 9 8 12 17 16 16 16 21
12 12 14 12 11 9 8 7 8 9 9 12 14 14 13 16 20 23 24 22 25 20 18 17 21 14 14 10 11 11 12 11 8 13 7 9 11 11 13 13 15 17 17 17 19
12 12 12 11 10 8 7 6 6 7 7 8 11 15 20 16 19 20 25 21 17 19 22 23 11 14 15 13 12 11 10 12 15 8 9 15 2 10 4 11 18 18 18 18 18
12 11 11 11 9 8 7 5 5 5 3 5 7 8 17 18 17 20 21 18 16 17 17 20 22 17 11 13 13 14 7 10 11 8 7 9 10 5 8 5 14 20 22 23 22
12 9 9 10 8 7 6 6 5 4 5 4 5 8 12 19 10 19 21 20 15 14 16 13 12 21 24 21 10 12 12 10 10 10 12 4 8 4 10 6 5 12 21 25 24
10 7 9 8 7 6 6 5 4 2 3 2 2 2 7 19 10 14 19 19 15 14 15 17 13 12 16 21 20 11 10 12 10 11 15 5 8 4 7 10 5 9 17 19 24
9 7 8 6 6 6 6 5 2 6 2 1 4 2 6 13 10 10 19 19 16 14 17 15 19 15 10 14 16 14 13 15 9 8 5 4 10 10 11 13 5 8 12 21 22
8 6 5 5 6 7 7 5 6 2 2 2 4 4 5 12 11 11 12 19 20 17 11 13 14 20 18 21 18 17 19 17 7 7 7 2 5 10 13 11 5 5 9 15 23
5 3 3 5 7 8 8 7 2 2 1 1 0 5 6 11 9 14 16 15 17 19 16 8 11 10 13 19 21 19 17 17 16 12 12 6 7 9 7 7 1 3 6 11 21
4 1 3 5 6 8 6 6 3 7 4 1 1 4 7 8 8 8 11 8 15 15 19 10 12 6 8 13 19 24 14 14 19 12 11 3 8 3 8 7 3 3 3 6 17
1 2 3 4 6 6 5 5 3 4 5 1 1 2 4 5 7 8 9 4 9 10 16 17 13 6 6 15 16 20 24 19 17 11 11 10 1 3 7 8 2 2 2 8 12
1 1 3 5 4 6 3 3 4 3 5 5 4 3 4 3 5 7 9 5 7 4 9 16 13 19 15 9 14 13 18 24 21 21 15 14 7 2 5 10 9 2 8 11 13
3 4 5 6 2 3 1 1 3 2 4 3 3 4 6 3 3 6 7 8 8 2 4 10 12 15 15 17 18 17 19 19 17 15 12 13 6 2 8 9 8 8 7 10 9
3 1 7 7 6 3 2 2 1 4 5 7 7 5 7 8 9 5 7 6 7 5 5 5 13 16 17 15 15 23 17 18 20 20 18 16 16 3 8 7 10 10 10 10 9
2 4 6 3 6 7 6 4 1 3 5 4 3 4 7 7 9 9 9 8 7 7 5 5 12 10 15 13 11 15 19 19 20 20 10 1 7 10 11 11 11 11 12 13 14
1 3 5 7 8 6 5 4 4 5 7 4 2 4 3 7 5 6 6 7 7 6 6 7 10 8 9 9 11 15 16 18 17 12 10 7 9 15 16 16 15 13 11 11 16
6 3 3 5 7 6 9 8 7 8 9 10 8 7 4 9 13 14 15 13 11 13 8 8 9 10 14 5 7 13 17 17 16 12 9 9 5 15 17 20 19 17 13 11 14
Wind_Direction
338 327 308 290 277 264 255 248 249 252 254 255 255 248 242 232 199 199 188 197 212 227 30 36 31 38 60 63 75 80 83 79 81 72 77 76 78 76 72 73 85 103 151 167 159
334 329 322 315 309 299 276 258 252 253 251 251 248 243 240 228 200 200 190 196 199 212 33 37 35 59 49 52 68 74 55 81 76 69 112 117 111 81 92 136 64 89 163 161 158
333 327 328 319 315 313 301 277 268 270 265 255 241 235 236 231 222 205 190 191 193 202 25 45 39 61 40 51 49 78 67 44 76 99 121 72 109 131 112 142 19 98 153 155 154
305 310 315 318 316 314 300 289 271 271 272 260 239 227 221 214 176 196 186 185 189 198 211 53 56 37 40 49 60 57 63 87 76 355 163 135 136 133 140 127 243 152 149 147 158
299 297 301 304 301 306 313 298 272 267 266 261 233 215 201 201 224 177 177 183 189 205 209 135 55 29 41 27 17 18 347 58 52 334 202 205 160 174 178 182 239 200 159 158 153
296 298 297 295 294 299 307 296 285 267 250 248 226 211 192 193 187 176 178 184 197 205 215 217 187 96 45 348 18 1 44 42 16 318 249 174 189 151 185 195 228 193 172 172 168
292 292 292 290 289 293 300 292 286 268 250 238 226 212 194 193 186 184 187 192 202 207 218 224 220 200 331 336 348 355 22 351 3 346 290 217 252 181 216 164 205 180 178 177 177
291 288 286 287 285 288 288 284 278 269 253 234 224 219 206 197 190 190 194 201 208 213 223 227 232 243 294 324 343 13 23 18 335 320 341 353 71 250 227 166 157 183 182 183 186
289 287 285 285 286 286 284 277 270 263 250 234 221 221 217 201 197 195 197 206 212 214 222 224 241 253 275 314 269 334 2 11 3 354 294 330 337 295 224 210 176 180 189 189 188
291 289 286 288 288 288 285 277 267 258 249 232 222 216 217 200 200 201 203 208 215 218 223 228 235 244 254 254 332 325 337 347 350 321 286 276 274 270 223 210 196 186 187 195 193
290 289 288 291 290 291 285 278 273 261 245 232 217 217 224 206 200 201 198 208 216 219 214 230 232 231 226 255 281 304 319 330 338 327 327 275 271 249 264 220 201 199 194 194 201
288 287 287 290 291 290 284 269 263 260 254 238 228 216 224 212 203 203 200 205 214 217 219 231 238 228 242 249 278 291 307 334 355 329 340 312 303 271 238 234 209 204 202 198 197
287 285 283 285 285 282 275 268 259 253 257 241 229 216 220 218 208 211 205 208 218 218 226 228 234 230 236 252 267 275 300 322 329 323 348 350 252 350 300 219 216 214 205 204 204
287 284 279 280 276 269 260 259 255 256 186 247 221 224 216 215 218 214 204 209 218 224 230 242 234 245 238 243 250 261 287 318 327 328 352 348 337 350 341 283 228 214 208 204 205
287 286 271 268 267 258 249 241 223 186 230 220 208 215 209 187 209 215 206 208 213 230 209 237 237 232 239 236 255 261 263 296 312 299 309 105 302 10 350 342 259 222 205 205 206
291 289 261 253 251 240 230 231 195 200 190 188 162 174 183 192 198 213 207 208 207 219 236 229 253 233 239 238 235 247 270 278 287 280 279 50 334 293 357 337 256 213 203 206 205
299 294 256 238 229 215 206 197 200 243 223 163 201 226 198 197 195 196 202 204 206 214 233 241 242 235 219 204 223 238 252 266 250 237 318 347 308 293 311 318 260 216 212 205 206
307 295 261 207 205 193 195 171 235 241 177 247 243 204 175 185 197 195 199 215 220 226 250 231 226 224 232 219 221 235 243 264 284 295 335 283 281 318 317 333 273 237 219 217 210
311 295 203 191 195 186 173 208 225 198 254 301 332 192 189 186 182 211 229 229 229 222 226 227 242 246 241 228 221 228 237 249 280 265 269 289 313 306 333 345 250 275 261 222 210
315 199 184 189 186 180 168 216 211 208 181 158 201 166 189 186 193 203 210 232 218 224 216 236 263 243 226 210 217 221 252 230 240 267 271 336 299 270 349 355 288 244 254 204 200
307 167 191 178 173 163 203 219 207 258 219 211 224 223 203 180 197 208 200 199 199 229 219 223 240 220 214 219 218 216 227 238 268 272 291 281 354 101 354 336 16 213 179 202 202
190 175 196 165 126 180 199 207 231 258 249 232 209 251 200 230 210 209 206 209 177 189 221 212 236 237 232 223 224 211 229 234 231 247 252 278 311 66 321 333 343 241 192 184 194
188 201 184 164 163 184 204 315 218 210 251 238 232 226 217 224 230 198 191 195 194 177 193 209 223 240 232 229 235 230 227 223 239 256 250 250 189 236 305 308 314 311 266 232 221
164 160 214 219 225 174 219 259 219 236 205 220 227 257 247 242 234 218 208 218 199 217 222 224 239 238 256 241 231 218 224 220 222 225 240 231 264 301 295 301 298 283 277 279 264
173 209 205 201 246 236 230 233 256 226 221 198 228 285 260 230 231 232 231 231 237 246 250 225 253 249 253 267 251 236 228 218 216 239 239 135 250 289 290 313 319 294 260 265 273
4 229 226 240 243 240 233 247 226 232 203 231 232 278 260 223 213 207 246 238 233 232 246 251 259 269 250 254 235 233 221 211 211 226 232 262 283 280 294 298 308 313 297 266 240
2 336 268 266 255 244 242 238 232 226 232 230 230 221 253 231 218 221 228 224 232 227 238 245 260 249 241 212 227 226 211 207 209 216 228 256 307 318 297 291 293 294 308 274 240
Height
3172 3172 3172 3172 3172 3172 3172 3172 3171 3171 3171 3171 3171 3171 3171 3172 3173 3174 3177 3178 3180 3181 3182 3181 3180 3179 3178 3179 3179 3178 3176 3178 3178 3177 3179 3176 3176 3175 3175 3174 3174 3173 3173 3174 3175
3172 3171 3171 3171 3171 3171 3171 3171 3170 3170 3170 3170 3170 3170 3170 3171 3172 3173 3176 3176 3179 3181 3182 3182 3181 3181 3182 3181 3180 3179 3179 3179 3178 3179 3178 3177 3178 3176 3176 3175 3175 3174 3173 3174 3177
3171 3171 3170 3170 3170 3170 3170 3169 3169 3168 3168 3169 3169 3169 3170 3170 3171 3171 3173 3176 3179 3181 3183 3183 3183 3182 3185 3181 3181 3180 3181 3179 3180 3179 3179 3177 3177 3178 3178 3178 3176 3174 3174 3175 3177
3170 3170 3169 3169 3169 3169 3169 3168 3168 3168 3167 3167 3168 3168 3169 3170 3174 3169 3172 3176 3179 3181 3183 3184 3184 3185 3186 3184 3182 3182 3180 3179 3179 3178 3178 3177 3177 3178 3179 3179 3177 3175 3176 3177 3178
3169 3168 3168 3167 3168 3168 3168 3168 3167 3167 3166 3166 3167 3167 3169 3170 3170 3169 3173 3176 3179 3181 3183 3184 3185 3185 3186 3184 3183 3182 3181 3179 3179 3178 3179 3178 3178 3179 3178 3176 3175 3175 3176 3178 3180
3167 3166 3165 3166 3166 3167 3167 3166 3166 3166 3165 3166 3166 3166 3168 3170 3169 3170 3173 3176 3178 3181 3182 3183 3184 3184 3184 3184 3184 3183 3181 3180 3179 3179 3178 3178 3178 3177 3177 3176 3174 3174 3176 3179 3181
3165 3164 3163 3163 3164 3165 3165 3164 3164 3164 3164 3164 3165 3165 3167 3169 3168 3171 3173 3175 3177 3180 3181 3182 3184 3185 3184 3184 3182 3182 3182 3181 3179 3179 3178 3178 3178 3178 3176 3176 3174 3175 3176 3179 3182
3162 3162 3161 3160 3161 3162 3162 3162 3162 3162 3163 3163 3163 3164 3164 3166 3167 3170 3173 3175 3177 3179 3180 3182 3183 3184 3184 3183 3183 3182 3181 3181 3179 3177 3177 3178 3177 3176 3176 3176 3175 3175 3176 3179 3181
3159 3159 3158 3158 3158 3159 3159 3160 3160 3160 3161 3161 3162 3162 3163 3165 3166 3168 3171 3173 3175 3177 3179 3181 3183 3184 3184 3184 3182 3182 3180 3180 3180 3177 3177 3177 3178 3175 3175 3175 3176 3176 3177 3178 3181
3157 3155 3154 3154 3155 3156 3156 3156 3157 3158 3158 3159 3160 3163 3161 3162 3163 3166 3169 3171 3174 3176 3179 3181 3183 3185 3184 3183 3179 3182 3181 3180 3180 3178 3175 3176 3176 3174 3174 3175 3177 3176 3177 3178 3180
3154 3153 3152 3152 3152 3153 3154 3154 3157 3156 3155 3156 3156 3156 3157 3159 3162 3164 3167 3169 3172 3174 3179 3180 3183 3182 3182 3182 3182 3182 3181 3179 3178 3175 3173 3174 3173 3173 3171 3173 3176 3176 3176 3177 3179
3151 3150 3149 3149 3150 3150 3151 3151 3151 3153 3152 3152 3152 3154 3155 3156 3159 3161 3165 3168 3169 3173 3177 3180 3178 3180 3181 3181 3181 3181 3179 3177 3177 3173 3172 3172 3170 3170 3168 3169 3172 3174 3175 3177 3178
3149 3148 3147 3147 3147 3148 3148 3149 3149 3149 3150 3149 3149 3151 3152 3155 3157 3159 3162 3165 3169 3173 3174 3176 3177 3177 3178 3180 3180 3179 3178 3177 3177 3173 3170 3169 3167 3166 3165 3165 3168 3170 3173 3176 3176
3146 3146 3145 3145 3147 3145 3146 3146 3147 3147 3149 3150 3148 3149 3150 3152 3155 3156 3160 3165 3167 3170 3173 3172 3174 3174 3176 3177 3179 3177 3176 3177 3175 3174 3170 3170 3167 3166 3164 3162 3162 3165 3168 3172 3174
3143 3143 3143 3142 3143 3144 3145 3145 3145 3147 3145 3149 3146 3146 3146 3151 3152 3153 3157 3161 3165 3167 3170 3170 3169 3171 3172 3174 3176 3177 3175 3177 3175 3172 3170 3168 3166 3162 3163 3162 3161 3160 3164 3167 3170
3140 3140 3140 3140 3141 3142 3143 3144 3145 3149 3143 3147 3145 3146 3147 3149 3152 3151 3156 3159 3163 3165 3164 3166 3164 3167 3169 3170 3174 3174 3175 3175 3173 3170 3164 3166 3169 3160 3162 3163 3161 3159 3159 3162 3165
3137 3137 3137 3138 3140 3140 3141 3143 3149 3145 3146 3147 3147 3146 3147 3150 3152 3153 3154 3157 3160 3163 3162 3163 3163 3164 3165 3168 3169 3172 3173 3168 3165 3159 3161 3166 3166 3162 3161 3160 3158 3158 3157 3159 3161
3135 3135 3135 3136 3137 3139 3141 3145 3147 3144 3145 3144 3144 3145 3147 3148 3151 3152 3153 3155 3157 3159 3159 3159 3158 3159 3162 3163 3167 3169 3170 3166 3163 3159 3159 3163 3161 3158 3158 3156 3154 3155 3155 3156 3158
3134 3134 3134 3135 3136 3138 3142 3145 3144 3145 3144 3144 3145 3146 3146 3147 3149 3151 3152 3153 3154 3156 3159 3157 3157 3157 3158 3161 3165 3166 3167 3167 3164 3161 3162 3156 3159 3156 3157 3155 3154 3154 3153 3153 3156
3133 3133 3134 3135 3136 3138 3142 3143 3143 3142 3142 3144 3146 3145 3145 3147 3148 3148 3149 3149 3152 3153 3155 3156 3157 3155 3155 3156 3159 3161 3164 3165 3163 3161 3159 3153 3155 3155 3156 3156 3154 3155 3153 3153 3155
3132 3133 3134 3135 3136 3139 3143 3142 3141 3142 3142 3145 3146 3146 3146 3146 3146 3146 3147 3148 3149 3150 3152 3155 3156 3154 3154 3154 3154 3158 3159 3161 3160 3158 3156 3153 3150 3154 3156 3154 3154 3155 3155 3156 3157
3132 3136 3134 3135 3140 3138 3142 3140 3140 3142 3141 3142 3143 3144 3145 3145 3146 3146 3146 3147 3147 3148 3149 3150 3152 3150 3151 3150 3152 3152 3153 3155 3157 3156 3156 3156 3153 3152 3154 3154 3154 3154 3154 3155 3156
3131 3133 3134 3135 3141 3140 3139 3140 3139 3141 3141 3142 3143 3142 3143 3144 3146 3145 3145 3145 3146 3147 3148 3148 3149 3147 3147 3149 3150 3150 3152 3153 3153 3152 3150 3151 3149 3150 3152 3153 3153 3153 3154 3155 3155
3132 3135 3134 3135 3135 3138 3139 3140 3140 3138 3139 3139 3140 3141 3141 3143 3143 3144 3145 3145 3144 3145 3145 3146 3145 3143 3139 3140 3141 3144 3148 3149 3150 3149 3148 3149 3148 3151 3150 3151 3151 3151 3152 3152 3153
3130 3131 3132 3136 3135 3135 3136 3137 3139 3139 3138 3138 3139 3140 3140 3142 3142 3142 3143 3144 3144 3143 3144 3144 3142 3142 3141 3140 3141 3142 3142 3145 3146 3146 3145 3147 3149 3149 3149 3149 3149 3149 3149 3150 3151
3130 3130 3130 3131 3131 3133 3134 3135 3136 3137 3137 3139 3138 3137 3138 3140 3139 3140 3140 3143 3143 3143 3143 3143 3141 3140 3139 3138 3138 3139 3140 3142 3144 3145 3146 3148 3149 3147 3147 3146 3146 3145 3145 3146 3146
3128 3128 3129 3129 3129 3131 3133 3132 3133 3133 3135 3134 3135 3135 3138 3136 3134 3135 3136 3137 3139 3140 3141 3141 3139 3139 3134 3136 3137 3137 3137 3139 3141 3143 3144 3146 3145 3146 3144 3143 3142 3142 3141 3141 3141